Location: Adrasan
(36.3319°N, 30.4314°E)
Time: 07:26:30
(UTC+00:00)

Lacrosse 5 - Pass Details

Date: 09 December 2023
Orbit: 714 x 724 km, 57.0° (Epoch: 09 March)

Event Time Altitude Azimuth Distance (km) Brightness Sun altitude
Rises 15:34:53 0° 254° (WSW) 3,107 7.4 -10.3°
Reaches altitude 10° 15:37:37 10° 267° (W) 2,189 5.7 -10.8°
Maximum altitude 15:41:48 26° 323° (NW) 1,400 3.6 -11.6°
Drops below altitude 10° 15:46:00 10° 19° (NNE) 2,197 4.0 -12.4°
Enters shadow 15:46:49 - 24° (NNE) 2,460 4.2 -12.6°
